Location: Newark
(43.6583°N, 1.6617°E)
Time: 22:15:20
(UTC+00:00)

Tiros 1 - Visible Passes

Search period start: 25 August 2019 00:00
Search period end: 04 September 2019 00:00
Orbit: 631 x 664 km, 48.4° (Epoch: 25 August)

Date Brightness Start Highest point End Pass type
(mag) Time Alt. Az. Time Alt. Az. Time Alt. Az.
25 Aug 9.8 00:43:32 14° ENE 00:43:32 14° ENE 00:44:09 10° ENE visible
25 Aug 7.9 02:21:13 40° NNW 02:22:15 48° N 02:26:48 10° E visible
25 Aug 7.1 04:00:03 10° WNW 04:04:44 84° SSW 04:09:27 10° ESE visible
26 Aug 9.4 01:08:48 20° ENE 01:08:48 20° ENE 01:10:24 10° ENE visible
26 Aug 7.5 02:46:30 31° NW 02:48:33 61° NNE 02:53:13 10° E visible
26 Aug 7.5 04:26:15 10° WNW 04:30:43 46° SW 04:35:13 10° SE visible
27 Aug 8.9 01:34:20 28° ENE 01:34:20 28° ENE 01:36:46 10° E visible
27 Aug 7.0 03:12:02 25° WNW 03:14:44 88° SSW 03:19:26 10° ESE visible
28 Aug 8.4 02:00:11 37° ENE 02:00:11 37° ENE 02:03:10 10° E visible
28 Aug 7.3 03:37:55 21° W 03:40:44 49° SW 03:45:16 10° SE visible
29 Aug 8.1 02:26:28 39° ESE 02:26:28 39° ESE 02:29:25 10° ESE visible
29 Aug 8.2 04:04:14 17° W 04:06:33 25° SW 04:10:21 10° SSE visible
29 Aug 8.4 19:58:05 10° S 20:00:45 21° SSE 20:00:45 21° SSE visible
30 Aug 8.5 02:53:11 25° SSE 02:53:11 25° SSE 02:55:18 10° SE visible
30 Aug 9.0 04:30:59 10° WSW 04:32:10 11° SW 04:33:38 10° SSW visible
30 Aug 7.4 20:23:01 10° SW 20:27:12 43° SSE 20:27:12 43° SSE visible
30 Aug 9.9 22:04:56 10° W 22:04:57 10° W 22:04:57 10° W visible
31 Aug 9.4 03:20:14 11° SSE 03:20:14 11° SSE 03:20:29 10° SSE visible
31 Aug 8.4 19:08:17 10° S 19:11:40 20° SE 19:15:02 10° E visible
31 Aug 6.9 20:48:44 10° WSW 20:53:12 79° S 20:53:12 79° S visible
01 Sep 7.5 19:33:05 10° SSW 19:37:24 41° SE 19:41:08 13° ENE visible
01 Sep 7.6 21:14:54 10° W 21:18:50 56° WNW 21:18:50 56° WNW visible
02 Sep 7.0 19:58:45 10° WSW 20:03:21 77° SSE 20:06:29 20° ENE visible
02 Sep 8.6 21:41:17 10° W 21:44:10 34° WNW 21:44:10 34° WNW visible
03 Sep 7.3 20:24:53 10° WSW 20:29:29 67° NNW 20:31:37 31° NE visible
03 Sep 9.4 22:07:40 10° WNW 22:09:17 20° WNW 22:09:17 20° WNW visible
